Change the Weather History Date:

Thursday, May 9, 2013

  Actual Average (KRUG) Record (KRUG)
Temperature  
Mean Temperature 40 °F -  
Max Temperature 55 °F 64 °F 87 °F (1977)
Min Temperature 26 °F 40 °F 23 °F (1966)
Degree Days  
Heating Degree Days 24    
Moisture  
Dew Point 23 °F    
Average Humidity 50    
Maximum Humidity 87    
Minimum Humidity 26    
Precipitation  
Precipitation 0.00 in - - ()
Sea Level Pressure  
Sea Level Pressure 30.27 in    
Wind  
Wind Speed 11 mph (NE)    
Max Wind Speed 17 mph    
Max Gust Speed 23 mph    
Visibility 10 miles    
Events      
Averages and records for this station are not official NWS values.
T = Trace of Precipitation, MM = Missing Value Source: NWS Daily Summary

Daily Weather History Graph

Daily Weather History Graph

Search for Another Location

Airport or City:

Trip Planner

Search our weather history database for the weather conditions in past years. The results will help you decide how hot, cold, wet, or windy it might be!

Date:

Astronomy

May. 09, 2013 Rise Set
Actual Time 6:04 AM CDT 9:06 PM CDT
Civil Twilight 5:27 AM CDT 9:43 PM CDT
Nautical Twilight 4:39 AM CDT 10:31 PM CDT
Astronomical Twilight 3:41 AM CDT 11:31 PM CDT
Moon 5:53 AM CDT (5/9) 9:02 PM CDT (5/9)
Length of Visible Light 16h 15m
Length of Day
15h 01m
Waning Crescent, 0% of the Moon is Illuminated
May 9
Waning Crescent
May 9
New
May 17
First Quarter
May 24
Full
May 31
Last Quarter

Hourly Weather History & Observations

Time (CDT) Temp. Windchill Dew Point Humidity Pressure Visibility Wind Dir Wind Speed Gust Speed Precip Events Conditions
12:15 AM 32.0 °F 23.0 °F 24.8 °F 75% 30.28 in 10.0 mi North 11.5 mph - N/A   Clear
12:35 AM 32.0 °F 23.0 °F 24.8 °F 75% 30.28 in 10.0 mi North 11.5 mph - N/A   Clear
12:55 AM 32.0 °F 22.5 °F 24.8 °F 75% 30.28 in 10.0 mi North 12.7 mph - N/A   Clear
1:15 AM 32.0 °F 22.1 °F 23.0 °F 69% 30.28 in 10.0 mi North 13.8 mph - N/A   Clear
1:35 AM 32.0 °F 22.5 °F 23.0 °F 69% 30.28 in 10.0 mi North 12.7 mph - N/A   Clear
1:55 AM 32.0 °F 22.5 °F 23.0 °F 69% 30.28 in 10.0 mi North 12.7 mph - N/A   Clear
2:15 AM 32.0 °F 23.0 °F 23.0 °F 69% 30.29 in 10.0 mi North 11.5 mph - N/A   Clear
3:35 AM 28.4 °F 18.5 °F 23.0 °F 80% 30.29 in 10.0 mi North 11.5 mph - N/A   Clear
3:55 AM 28.4 °F 18.5 °F 23.0 °F 80% 30.29 in 10.0 mi North 11.5 mph - N/A   Clear
4:35 AM 28.4 °F 18.5 °F 23.0 °F 80% 30.29 in 10.0 mi NNW 11.5 mph - N/A   Clear
4:55 AM 26.6 °F 16.2 °F 21.2 °F 80% 30.29 in 10.0 mi NNW 11.5 mph - N/A   Clear
5:35 AM 26.6 °F 16.8 °F 21.2 °F 80% 30.30 in 10.0 mi NNW 10.4 mph - N/A   Clear
5:55 AM 26.6 °F 16.2 °F 19.4 °F 74% 30.30 in 10.0 mi NNW 11.5 mph - N/A   Clear
6:15 AM 26.6 °F 16.2 °F 19.4 °F 74% 30.30 in 10.0 mi North 11.5 mph - N/A   Clear
7:15 AM 28.4 °F 19.1 °F 19.4 °F 69% 30.32 in 10.0 mi North 10.4 mph - N/A   Clear
7:55 AM 32.0 °F 22.5 °F 21.2 °F 64% 30.32 in 10.0 mi North 12.7 mph - N/A   Clear
8:35 AM 33.8 °F 24.3 °F 21.2 °F 60% 30.33 in 10.0 mi NNE 13.8 mph - N/A   Clear
9:15 AM 37.4 °F 28.9 °F 23.0 °F 56% 30.34 in 10.0 mi NNE 13.8 mph - N/A   Clear
9:55 AM 41.0 °F 33.5 °F 21.2 °F 45% 30.34 in 10.0 mi NE 13.8 mph - N/A   Clear
10:35 AM 42.8 °F 34.8 °F 23.0 °F 46% 30.33 in 10.0 mi ENE 17.3 mph - N/A   Clear
10:55 AM 44.6 °F 37.2 °F 19.4 °F 37% 30.33 in 10.0 mi ENE 17.3 mph 23.0 mph N/A   Clear
11:15 AM 46.4 °F 40.7 °F 19.4 °F 34% 30.33 in 10.0 mi NE 12.7 mph 23.0 mph N/A   Clear
11:35 AM 46.4 °F 40.1 °F 19.4 °F 34% 30.33 in 10.0 mi NE 15.0 mph 20.7 mph N/A   Clear
12:15 PM 48.2 °F - 19.4 °F 32% 30.32 in 10.0 mi ENE 13.8 mph 19.6 mph N/A   Clear
12:35 PM 48.2 °F - 19.4 °F 32% 30.32 in 10.0 mi NE 12.7 mph 20.7 mph N/A   Clear
12:55 PM 48.2 °F - 19.4 °F 32% 30.31 in 10.0 mi NE 13.8 mph 17.3 mph N/A   Clear
1:15 PM 50.0 °F - 19.4 °F 30% 30.31 in 10.0 mi ENE 11.5 mph 18.4 mph N/A   Clear
1:35 PM 50.0 °F - 19.4 °F 30% 30.31 in 10.0 mi ENE 15.0 mph 20.7 mph N/A   Clear
1:55 PM 50.0 °F - 19.4 °F 30% 30.30 in 10.0 mi NE 15.0 mph - N/A   Clear
2:35 PM 51.8 °F - 19.4 °F 28% 30.29 in 10.0 mi ENE 15.0 mph 19.6 mph N/A   Clear
3:15 PM 53.6 °F - 19.4 °F 26% 30.28 in 10.0 mi NE 11.5 mph - N/A   Clear
3:35 PM 53.6 °F - 21.2 °F 28% 30.27 in 10.0 mi NNE 11.5 mph - N/A   Clear
3:55 PM 53.6 °F - 19.4 °F 26% 30.26 in 10.0 mi ENE 13.8 mph 17.3 mph N/A   Clear
4:15 PM 53.6 °F - 21.2 °F 28% 30.25 in 10.0 mi East 8.1 mph - N/A   Clear
4:35 PM 53.6 °F - 19.4 °F 26% 30.24 in 10.0 mi East 11.5 mph 19.6 mph N/A   Clear
4:55 PM 53.6 °F - 23.0 °F 30% 30.24 in 10.0 mi East 12.7 mph 16.1 mph N/A   Clear
5:15 PM 53.6 °F - 23.0 °F 30% 30.24 in 10.0 mi East 12.7 mph - N/A   Clear
5:35 PM 55.4 °F - 23.0 °F 29% 30.23 in 10.0 mi East 9.2 mph 17.3 mph N/A   Clear
5:55 PM 53.6 °F - 23.0 °F 30% 30.23 in 10.0 mi ESE 10.4 mph - N/A   Clear
6:15 PM 55.4 °F - 23.0 °F 29% 30.23 in 10.0 mi NE 8.1 mph - N/A   Clear
6:35 PM 53.6 °F - 23.0 °F 30% 30.22 in 10.0 mi East 5.8 mph - N/A   Clear
6:55 PM 53.6 °F - 23.0 °F 30% 30.22 in 10.0 mi East 6.9 mph - N/A   Clear
7:15 PM 53.6 °F - 21.2 °F 28% 30.21 in 10.0 mi East 6.9 mph - N/A   Clear
7:55 PM 53.6 °F - 21.2 °F 28% 30.21 in 10.0 mi East 8.1 mph - N/A   Clear
8:15 PM 51.8 °F - 23.0 °F 33% 30.21 in 10.0 mi East 5.8 mph - N/A   Clear
8:35 PM 50.0 °F - 24.8 °F 37% 30.22 in 10.0 mi East 4.6 mph - N/A   Clear
8:55 PM 48.2 °F - 26.6 °F 43% 30.22 in 10.0 mi East 4.6 mph - N/A   Clear
9:15 PM 48.2 °F - 30.2 °F 50% 30.22 in 10.0 mi East 3.5 mph - N/A   Clear
9:35 PM 44.6 °F - 30.2 °F 57% 30.22 in 10.0 mi Calm Calm - N/A   Clear
9:55 PM 44.6 °F - 28.4 °F 53% 30.22 in 10.0 mi Calm Calm - N/A   Clear
10:15 PM 41.0 °F - 28.4 °F 61% 30.22 in 10.0 mi Calm Calm - N/A   Clear
10:55 PM 32.0 °F - 26.6 °F 80% 30.22 in 10.0 mi Calm Calm - N/A   Clear
11:15 PM 33.8 °F 30.8 °F 28.4 °F 81% 30.22 in 10.0 mi WNW 3.5 mph - N/A   Clear
11:35 PM 32.0 °F - 28.4 °F 87% 30.21 in 10.0 mi Calm Calm - N/A   Clear
11:55 PM 32.0 °F 28.7 °F 26.6 °F 80% 30.21 in 10.0 mi NW 3.5 mph - N/A   Clear